Weather History for KBUR - September, 2014

Change the Weather History Date:

Thursday, September 25, 2014

  Actual Average Record
Temperature  
Mean Temperature 81 °F 71 °F  
Max Temperature 92 °F 84 °F 109 °F (1978)
Min Temperature 69 °F 59 °F 46 °F (1948)
Degree Days  
Heating Degree Days 0 0  
Month to date heating degree days 0 0  
Since 1 July heating degree days 0 0  
Cooling Degree Days 16 7  
Month to date cooling degree days 367 219  
Year to date cooling degree days 1667 1101  
Growing Degree Days 30 (Base 50)    
Moisture  
Dew Point 50 °F    
Average Humidity 40    
Maximum Humidity 61    
Minimum Humidity 18    
Precipitation  
Precipitation 0.00 in 0.01 in 0.25 in (1986)
Month to date precipitation T 0.16  
Year to date precipitation 4.95 12.80  
Since 1 July precipitation 0.04 0.25  
Sea Level Pressure  
Sea Level Pressure 29.85 in    
Wind  
Wind Speed 4 mph (South)    
Max Wind Speed 13 mph    
Max Gust Speed 17 mph    
Visibility 10 miles    
Events      
T = Trace of Precipitation, MM = Missing Value Source: NWS Daily Summary

Daily Weather History Graph

Daily Weather History Graph

Search for Another Location

Airport or City:

Trip Planner

Search our weather history database for the weather conditions in past years. The results will help you decide how hot, cold, wet, or windy it might be!

Date:

Astronomy

Sep. 25, 2014 Rise Set
Actual Time 6:43 AM PDT 6:45 PM PDT
Civil Twilight 6:18 AM PDT 7:10 PM PDT
Nautical Twilight 5:49 AM PDT 7:39 PM PDT
Astronomical Twilight 5:20 AM PDT 8:09 PM PDT
Moon 8:01 AM PDT (9/25) 7:38 PM PDT (9/25)
Length of Visible Light 12h 52m
Length of Day
12h 02m
New Moon, 2% of the Moon is Illuminated
Sep 25
New Moon
Oct 1
First Quarter
Oct 8
Full
Oct 15
Last Quarter
Oct 23
New

Hourly Weather History & Observations

Time (PDT) Temp. Heat Index Dew Point Humidity Pressure Visibility Wind Dir Wind Speed Gust Speed Precip Events Conditions
12:53 AM 73.9 °F - 57.0 °F 55% 29.85 in 10.0 mi Calm Calm - N/A   Clear
1:53 AM 73.0 °F - 55.0 °F 53% 29.85 in 10.0 mi Calm Calm - N/A   Clear
2:53 AM 71.1 °F - 46.0 °F 41% 29.83 in 10.0 mi Calm Calm - N/A   Clear
3:53 AM 72.0 °F - 44.1 °F 37% 29.83 in 10.0 mi Calm Calm - N/A   Clear
4:53 AM 72.0 °F - 45.0 °F 38% 29.86 in 10.0 mi Calm Calm - N/A   Clear
5:53 AM 70.0 °F - 45.0 °F 41% 29.87 in 10.0 mi Calm Calm - N/A   Clear
6:53 AM 70.0 °F - 46.0 °F 42% 29.88 in 10.0 mi Calm Calm - N/A   Clear
7:53 AM 73.0 °F - 43.0 °F 34% 29.90 in 10.0 mi Calm Calm - N/A   Clear
8:53 AM 77.0 °F - 46.0 °F 33% 29.90 in 10.0 mi Calm Calm - N/A   Clear
9:53 AM 81.0 °F - 46.0 °F 29% 29.89 in 10.0 mi SSE 3.5 mph - N/A   Clear
10:53 AM 87.1 °F - 39.9 °F 19% 29.89 in 10.0 mi East 3.5 mph - N/A   Clear
11:53 AM 90.0 °F - 48.9 °F 24% 29.88 in 10.0 mi SSE 6.9 mph - N/A   Clear
12:53 PM 90.0 °F 87.9 °F 55.0 °F 30% 29.87 in 10.0 mi South 10.4 mph - N/A   Clear
1:53 PM 89.1 °F 86.7 °F 53.1 °F 29% 29.86 in 10.0 mi South 13.8 mph - N/A   Clear
2:53 PM 89.1 °F 87.3 °F 55.9 °F 32% 29.85 in 10.0 mi South 11.5 mph - N/A   Clear
3:53 PM 89.1 °F 88.2 °F 59.0 °F 36% 29.83 in 10.0 mi South 8.1 mph - N/A   Clear
4:53 PM 88.0 °F 86.1 °F 55.0 °F 32% 29.82 in 10.0 mi SSW 9.2 mph - N/A   Clear
5:53 PM 84.9 °F 83.9 °F 57.0 °F 38% 29.81 in 10.0 mi SSW 9.2 mph - N/A   Clear
6:53 PM 82.0 °F - 52.0 °F 35% 29.82 in 10.0 mi SE 8.1 mph - N/A   Clear
7:53 PM 79.0 °F - 46.9 °F 32% 29.83 in 10.0 mi South 3.5 mph - N/A   Clear
8:53 PM 79.0 °F - 45.0 °F 30% 29.84 in 10.0 mi Calm Calm - N/A   Clear
9:53 PM 75.9 °F - 55.0 °F 48% 29.83 in 10.0 mi South 3.5 mph - N/A   Clear
10:53 PM 75.9 °F - 53.1 °F 45% 29.84 in 10.0 mi Calm Calm - N/A   Clear
11:53 PM 73.9 °F - 59.0 °F 59% 29.85 in 10.0 mi ESE 4.6 mph - N/A   Clear